Change the Weather History Date:

Thursday, April 3, 2014

  Actual Average (KPDC) Record (KPDC)
Temperature  
Mean Temperature 40 °F -  
Max Temperature 45 °F 54 °F 80 °F (1981)
Min Temperature 36 °F 33 °F 13 °F (1954)
Degree Days  
Heating Degree Days 25    
Moisture  
Dew Point 27 °F    
Average Humidity 63    
Maximum Humidity 86    
Minimum Humidity 43    
Precipitation  
Precipitation 0.17 in - - ()
Sea Level Pressure  
Sea Level Pressure 29.86 in    
Wind  
Wind Speed 10 mph (ENE)    
Max Wind Speed 16 mph    
Max Gust Speed 26 mph    
Visibility 9 miles    
Events Rain , Thunderstorm    
Averages and records for this station are not official NWS values.
T = Trace of Precipitation, MM = Missing Value Source: NWS Daily Summary

Daily Weather History Graph

Daily Weather History Graph

Search for Another Location

Airport or City:

Trip Planner

Search our weather history database for the weather conditions in past years. The results will help you decide how hot, cold, wet, or windy it might be!

Date:

Astronomy

Apr. 03, 2014 Rise Set
Actual Time 6:41 AM CDT 7:31 PM CDT
Civil Twilight 6:12 AM CDT 8:00 PM CDT
Nautical Twilight 5:38 AM CDT 8:34 PM CDT
Astronomical Twilight 5:02 AM CDT 9:10 PM CDT
Moon 9:05 AM CDT (4/3) 11:56 PM CDT (4/3)
Length of Visible Light 13h 48m
Length of Day
12h 50m
Waxing Crescent, 17% of the Moon is Illuminated
Apr 3
Waxing Crescent
Apr 7
First Quarter
Apr 15
Full
Apr 22
Last Quarter
Apr 29
New

Hourly Weather History & Observations

Time (CDT) Temp. Windchill Dew Point Humidity Pressure Visibility Wind Dir Wind Speed Gust Speed Precip Events Conditions
12:53 AM 41.0 °F 35.2 °F 19.9 °F 43% 30.05 in 10.0 mi ENE 9.2 mph - 0.00 in   Overcast
1:53 AM 39.0 °F 31.8 °F 23.0 °F 53% 30.02 in 10.0 mi ENE 11.5 mph 19.6 mph 0.00 in Rain Light Rain
2:53 AM 39.0 °F 33.4 °F 23.0 °F 53% 30.01 in 10.0 mi ENE 8.1 mph 19.6 mph 0.01 in   Overcast
3:53 AM 39.0 °F 31.8 °F 23.0 °F 53% 29.97 in 10.0 mi ENE 11.5 mph 23.0 mph N/A   Overcast
4:53 AM 39.0 °F 32.8 °F 24.1 °F 55% 29.97 in 10.0 mi ENE 9.2 mph 17.3 mph N/A   Overcast
5:53 AM 39.0 °F 33.4 °F 25.0 °F 57% 29.94 in 10.0 mi ENE 8.1 mph - N/A   Overcast
6:53 AM 39.9 °F 33.4 °F 23.0 °F 51% 29.93 in 10.0 mi ENE 10.4 mph 19.6 mph N/A   Overcast
7:53 AM 39.9 °F 32.5 °F 23.0 °F 51% 29.93 in 10.0 mi ENE 12.7 mph 21.9 mph N/A   Overcast
9:11 AM 39.9 °F 33.4 °F 23.0 °F 51% 29.90 in 10.0 mi ENE 10.4 mph 20.7 mph N/A   Overcast
9:53 AM 39.0 °F 32.8 °F 24.1 °F 55% 29.92 in 10.0 mi East 9.2 mph 26.5 mph N/A   Overcast
10:53 AM 39.0 °F 30.3 °F 25.0 °F 57% 29.89 in 10.0 mi ENE 16.1 mph 24.2 mph 0.00 in   Overcast
11:53 AM 39.9 °F 33.9 °F 27.0 °F 60% 29.88 in 10.0 mi East 9.2 mph 21.9 mph N/A   Overcast
12:53 PM 42.1 °F 37.7 °F 28.0 °F 58% 29.88 in 10.0 mi ENE 6.9 mph 17.3 mph N/A   Overcast
1:53 PM 44.1 °F 38.1 °F 30.9 °F 60% 29.85 in 10.0 mi ENE 11.5 mph 17.3 mph N/A   Overcast
2:53 PM 42.1 °F 35.2 °F 32.0 °F 67% 29.81 in 10.0 mi ENE 12.7 mph 20.7 mph N/A   Overcast
3:53 PM 41.0 °F 35.2 °F 33.1 °F 73% 29.82 in 10.0 mi East 9.2 mph - N/A   Overcast
4:53 PM 39.9 °F 32.1 °F 32.0 °F 73% 29.82 in 10.0 mi ENE 13.8 mph 19.6 mph N/A   Overcast
5:53 PM 39.9 °F 33.4 °F 30.9 °F 70% 29.80 in 10.0 mi ENE 10.4 mph 18.4 mph N/A   Overcast
6:53 PM 39.9 °F 33.9 °F 30.0 °F 68% 29.79 in 10.0 mi ENE 9.2 mph - N/A   Overcast
7:53 PM 39.0 °F 32.8 °F 30.0 °F 70% 29.77 in 10.0 mi East 9.2 mph - N/A   Overcast
8:53 PM 39.0 °F 34.8 °F 28.0 °F 65% 29.77 in 10.0 mi ENE 5.8 mph - N/A   Overcast
10:53 PM 36.0 °F 32.1 °F 30.9 °F 82% 29.73 in 4.0 mi NE 4.6 mph - 0.12 in Rain , Thunderstorm Thunderstorms and Rain
11:09 PM 36.0 °F 29.6 °F 30.9 °F 82% 29.68 in 4.0 mi East 8.1 mph - 0.03 in Rain Rain
11:17 PM 36.0 °F 29.6 °F 32.0 °F 86% 29.68 in 5.0 mi East 8.1 mph - 0.04 in Rain Light Rain
11:53 PM 36.0 °F 31.1 °F 32.0 °F 86% 29.67 in 5.0 mi ENE 5.8 mph - 0.04 in   Overcast